Date,TemperatureHighF,TemperatureAvgF,TemperatureLowF,DewpointHighF,DewpointAvgF,DewpointLowF,HumidityHigh,HumidityAvg,HumidityLow,PressureMaxIn,PressureMinIn,WindSpeedMaxMPH,WindSpeedAvgMPH,GustSpeedMaxMPH,PrecipitationSumIn
2013-7-1,94.3,78.3,64.4,66.0,62.6,58.0,83,61,31,29.96,29.87,8,2,14,0.00
2013-7-2,84.8,73.4,63.0,62.0,58.5,55.0,78,61,46,30.06,29.97,8,2,12,0.00
2013-7-3,83.0,69.7,56.1,59.0,54.4,48.0,83,61,29,30.13,30.00,9,2,13,0.00
2013-7-4,76.0,64.4,54.4,57.0,53.0,47.0,83,68,47,30.07,29.99,10,2,12,0.00
2013-7-5,79.6,67.1,53.0,57.0,53.0,48.0,84,63,39,30.00,29.91,12,3,16,0.00
2013-7-6,84.7,66.8,54.1,58.0,54.2,49.0,84,67,32,29.97,29.81,10,2,14,0.00
2013-7-7,82.9,69.8,58.8,60.0,56.4,54.0,83,65,42,29.91,29.85,13,3,16,0.00
2013-7-8,81.8,67.9,57.7,61.0,56.9,52.0,83,70,46,30.06,29.91,9,2,11,0.00
2013-7-9,89.2,73.5,58.0,61.0,57.8,53.0,83,61,35,30.09,29.95,8,2,12,0.00
2013-7-10,79.2,67.6,57.2,59.0,53.9,46.0,83,64,42,30.02,29.89,9,2,12,0.00
2013-7-11,74.2,62.8,53.9,52.0,47.8,44.0,80,60,37,30.03,29.92,11,3,13,0.00
2013-7-12,76.9,62.9,49.5,53.0,48.7,45.0,84,63,33,30.07,29.99,11,2,16,0.00
2013-7-13,79.8,66.0,51.1,54.0,49.6,46.0,83,59,33,30.19,30.07,13,2,14,0.00
2013-7-14,81.9,67.4,52.1,57.0,52.4,47.0,83,62,35,30.11,29.98,9,2,14,0.00
2013-7-15,85.1,69.6,53.5,54.0,48.9,42.0,83,54,23,30.07,29.89,13,3,17,0.00
2013-7-16,93.1,75.1,54.7,59.0,51.5,44.0,79,49,19,29.92,29.79,10,2,16,0.00
2013-7-17,79.5,71.4,63.2,63.0,58.3,56.0,79,64,48,30.16,29.83,12,2,15,0.06
2013-7-18,63.3,62.8,61.9,56.0,55.7,55.0,78,77,76,30.17,30.17,0,0,2,0.00
2013-7-30,80.3,72.3,61.3,59.0,53.8,-99.9,81,56,46,30.09,30.04,9,-18,12,0.00
2013-7-31,80.8,68.9,57.9,61.0,57.2,52.0,83,68,50,30.09,29.96,9,2,13,0.00